Location: ????
(33.1659°N, 35.6604°E)
Time: 23:37:35
(UTC+00:00)

ARGOS - Pass Details

Date: 20 September 2019
Orbit: 821 x 834 km, 98.5° (Epoch: 17 October)

Event Time Altitude Azimuth Distance (km) Brightness Sun altitude
Exits shadow 16:53:36 24° 77° (ENE) 1,666 4.2 -16.6°
Maximum altitude 16:54:09 24° 68° (ENE) 1,651 4.3 -16.7°
Drops below altitude 10° 16:58:21 10° 16° (NNE) 2,430 5.6 -17.6°
Sets 17:01:06 0° 3° (N) 3,369 6.5 -18.2°
